Date String (YYYY-MM-DD hh:mm:ss) UTC,Instrument flags,absolute air pressure of the measurement (hPa),sample flow rate (lpm),inlet stack bypass flow (lpm),air temperature of the measurement (°C),ambient temperature measured by the external sensor (°C),aerosol sample conditioner tube jacket temperature (°C),OPC LED temperature (°C),internal box temperature (°C),relative humidity of the measurement (%),span deviation,mass concentration of particles derived from Lorenz-Mie calculation of OPC scattering (μg/m³),mass concentration of particles derived from Lorenz-Mie calculation of OPC scattering (μg/m³),mass concentration of particles derived from Lorenz-Mie calculation of OPC scattering (μg/m³)
DateTimeUTC,F1_M11,P_M11,Q1_M11,Q2_M11,T1_M11,T2_M11,T3_M11,T4_M11,T5_M11,U1_M11,ZSPAN_M11,X2_M11,X0_M11,X1_M11
2023-11-05 01:00:00,SystemResetWarning,0832.5,5.01,000.00,028.2,027.2,000.0,036.3,029.6,13.4,0000.0,0002.73,0008.78,0001.70
2023-11-05 01:01:00,SystemResetWarning,0832.6,5.01,000.00,028.2,027.3,000.0,036.4,029.7,13.4,0000.0,0002.72,0008.86,0001.71
2023-11-05 01:02:00,SystemResetWarning,0832.5,5.00,000.00,028.2,027.3,000.0,036.4,029.7,13.2,0000.0,0002.74,0009.30,0001.71
2023-11-05 01:03:00,SystemResetWarning,0832.5,4.99,000.00,028.2,027.3,000.0,036.4,029.7,13.1,0000.0,0002.66,0009.06,0001.68
2023-11-05 01:04:00,SystemResetWarning,0832.5,4.99,000.00,028.2,027.2,000.0,036.4,029.8,13.1,0000.0,0002.66,0008.90,0001.67
2023-11-05 01:05:00,SystemResetWarning,0832.5,5.00,000.00,028.2,025.4,000.0,036.4,029.6,13.1,0000.0,0002.67,0008.59,0001.67
2023-11-05 01:06:00,SystemResetWarning,0832.4,5.00,000.00,028.1,023.9,000.0,036.3,029.3,13.2,0000.0,0002.68,0008.53,0001.68
2023-11-05 01:07:00,SystemResetWarning,0832.3,5.01,000.00,027.9,023.8,000.0,036.3,028.9,13.4,0000.0,0002.74,0008.50,0001.69
2023-11-05 01:08:00,SystemResetWarning,0832.3,5.00,000.00,027.8,024.2,000.0,036.2,028.7,13.3,0000.0,0002.74,0008.60,0001.70
2023-11-05 01:09:00,SystemResetWarning,0832.2,4.99,000.00,027.7,024.7,000.0,036.2,028.7,13.3,0000.0,0002.67,0008.30,0001.71
2023-11-05 01:10:00,SystemResetWarning,0832.2,5.00,000.00,027.6,025.1,000.0,036.1,028.8,13.4,0000.0,0002.62,0007.71,0001.71
2023-11-05 01:11:00,SystemResetWarning,0832.3,5.00,000.00,027.6,025.4,000.0,036.1,028.9,13.4,0000.0,0002.63,0007.25,0001.73
2023-11-05 01:12:00,SystemResetWarning,0832.3,5.00,000.00,027.6,025.7,000.0,036.1,029.0,13.4,0000.0,0002.67,0007.54,0001.75
2023-11-05 01:13:00,SystemResetWarning,0832.3,5.00,000.00,027.6,025.9,000.0,036.1,029.0,13.4,0000.0,0002.66,0006.81,0001.76
2023-11-05 01:14:00,SystemResetWarning,0832.3,5.00,000.00,027.6,026.1,000.0,036.1,029.0,13.5,0000.0,0002.69,0007.05,0001.77
2023-11-05 01:15:00,SystemResetWarning,0832.3,4.99,000.00,027.6,026.2,000.0,036.0,029.1,13.5,0000.0,0002.71,0007.93,0001.78
2023-11-05 01:16:00,SystemResetWarning,0832.3,5.00,000.00,027.7,026.4,000.0,036.0,029.1,13.5,0000.0,0002.66,0007.69,0001.77
2023-11-05 01:17:00,SystemResetWarning,0832.4,4.99,000.00,027.7,026.5,000.0,036.0,029.2,13.5,0000.0,0002.58,0007.58,0001.77
2023-11-05 01:18:00,SystemResetWarning,0832.4,4.99,000.00,027.7,026.5,000.0,036.0,029.2,13.5,0000.0,0002.57,0007.52,0001.76
2023-11-05 01:19:00,SystemResetWarning,0832.4,5.01,000.00,027.7,026.6,000.0,036.0,029.2,13.5,0000.0,0002.56,0007.41,0001.72
2023-11-05 01:20:00,SystemResetWarning,0832.4,5.01,000.00,027.8,026.7,000.0,036.0,029.2,13.4,0000.0,0002.58,0007.47,0001.68
2023-11-05 01:21:00,SystemResetWarning,0832.3,5.00,000.00,027.8,026.7,000.0,036.1,029.3,13.4,0000.0,0002.61,0007.61,0001.66
2023-11-05 01:22:00,SystemResetWarning,0832.3,5.00,000.00,027.8,026.8,000.0,036.1,029.3,13.3,0000.0,0002.56,0007.62,0001.65
2023-11-05 01:23:00,SystemResetWarning,0832.3,5.00,000.00,027.8,026.8,000.0,036.1,029.3,13.3,0000.0,0002.56,0007.61,0001.64
2023-11-05 01:24:00,SystemResetWarning,0832.3,5.00,000.00,027.8,026.9,000.0,036.1,029.4,13.3,0000.0,0002.59,0008.37,0001.64
2023-11-05 01:25:00,SystemResetWarning,0832.3,5.00,000.00,027.8,026.9,000.0,036.1,029.4,13.3,0000.0,0002.61,0008.34,0001.63
2023-11-05 01:26:00,SystemResetWarning,0832.4,5.00,000.00,027.9,026.9,000.0,036.1,029.4,13.3,0000.0,0002.60,0007.58,0001.64
2023-11-05 01:27:00,SystemResetWarning,0832.4,4.99,000.00,027.9,026.9,000.0,036.1,029.4,13.4,0000.0,0002.63,0007.53,0001.67
2023-11-05 01:28:00,SystemResetWarning,0832.4,5.00,000.00,027.9,027.0,000.0,036.1,029.4,13.3,0000.0,0002.71,0008.02,0001.71
2023-11-05 01:29:00,SystemResetWarning,0832.5,5.01,000.00,027.9,027.0,000.0,036.2,029.4,13.1,0000.0,0002.71,0008.04,0001.74
2023-11-05 01:30:00,SystemResetWarning,0832.5,5.01,000.00,027.9,027.0,000.0,036.2,029.4,13.1,0000.0,0002.69,0007.94,0001.79
2023-11-05 01:31:00,SystemResetWarning,0832.5,5.00,000.00,027.9,027.0,000.0,036.2,029.4,13.2,0000.0,0002.69,0007.95,0001.84
2023-11-05 01:32:00,SystemResetWarning,0832.5,4.99,000.00,028.0,027.0,000.0,036.2,029.4,13.0,0000.0,0002.74,0007.98,0001.88
2023-11-05 01:33:00,SystemResetWarning,0832.5,4.99,000.00,028.0,027.0,000.0,036.2,029.5,13.0,0000.0,0002.83,0008.00,0001.92
2023-11-05 01:34:00,SystemResetWarning,0832.5,5.00,000.00,028.0,027.0,000.0,036.2,029.5,13.0,0000.0,0002.84,0007.40,0001.94
2023-11-05 01:35:00,SystemResetWarning,0832.4,5.01,000.00,028.0,027.0,000.0,036.2,029.4,13.1,0000.0,0002.85,0006.31,0001.97
2023-11-05 01:36:00,SystemResetWarning,0832.3,5.00,000.00,028.0,027.0,000.0,036.3,029.5,13.0,0000.0,0002.81,0005.96,0002.01
2023-11-05 01:37:00,SystemResetWarning,0832.3,5.01,000.00,028.0,027.0,000.0,036.3,029.5,13.0,0000.0,0002.93,0006.20,0002.05
2023-11-05 01:38:00,SystemResetWarning,0832.3,5.01,000.00,028.0,027.0,000.0,036.3,029.5,13.0,0000.0,0002.97,0006.89,0002.06
2023-11-05 01:39:00,SystemResetWarning,0832.2,5.00,000.00,028.0,027.0,000.0,036.3,029.5,13.1,0000.0,0002.96,0007.22,0002.06
2023-11-05 01:40:00,SystemResetWarning,0832.3,4.99,000.00,028.1,027.1,000.0,036.3,029.5,13.2,0000.0,0002.96,0007.90,0002.03
2023-11-05 01:41:00,SystemResetWarning,0832.3,4.99,000.00,028.1,027.1,000.0,036.3,029.5,13.3,0000.0,0002.94,0007.91,0001.99
2023-11-05 01:42:00,SystemResetWarning,0832.3,4.99,000.00,028.1,027.1,000.0,036.3,029.5,13.3,0000.0,0002.89,0008.18,0001.93
2023-11-05 01:43:00,SystemResetWarning,0832.2,5.01,000.00,028.1,027.1,000.0,036.3,029.6,13.3,0000.0,0002.83,0008.51,0001.88
2023-11-05 01:44:00,SystemResetWarning,0832.2,5.01,000.00,028.1,027.1,000.0,036.4,029.6,13.3,0000.0,0002.71,0008.41,0001.82
2023-11-05 01:45:00,SystemResetWarning,0832.2,5.00,000.00,028.1,027.1,000.0,036.4,029.6,13.3,0000.0,0002.65,0008.35,0001.77
2023-11-05 01:46:00,SystemResetWarning,0832.2,5.00,000.00,028.1,027.2,000.0,036.4,029.6,13.3,0000.0,0002.60,0008.32,0001.71
2023-11-05 01:47:00,SystemResetWarning,0832.2,4.99,000.00,028.2,027.2,000.0,036.4,029.6,13.3,0000.0,0002.59,0008.26,0001.66
2023-11-05 01:48:00,SystemResetWarning,0832.2,5.00,000.00,028.2,027.2,000.0,036.4,029.6,13.2,0000.0,0002.47,0008.66,0001.61
2023-11-05 01:49:00,SystemResetWarning,0832.2,5.00,000.00,028.2,027.2,000.0,036.4,029.7,13.2,0000.0,0002.37,0010.36,0001.56
2023-11-05 01:50:00,SystemResetWarning,0832.1,5.00,000.00,028.2,027.2,000.0,036.4,029.7,13.2,0000.0,0002.29,0010.05,0001.52
2023-11-05 01:51:00,SystemResetWarning,0832.1,5.01,000.00,028.2,027.2,000.0,036.5,029.6,13.2,0000.0,0002.28,0009.68,0001.49
2023-11-05 01:52:00,SystemResetWarning,0832.1,5.00,000.00,028.2,027.2,000.0,036.5,029.6,13.2,0000.0,0002.30,0009.83,0001.49
2023-11-05 01:53:00,SystemResetWarning,0832.1,5.00,000.00,028.2,027.2,000.0,036.5,029.7,13.2,0000.0,0002.28,0010.27,0001.49
2023-11-05 01:54:00,SystemResetWarning,0832.1,4.99,000.00,028.2,027.2,000.0,036.5,029.7,13.2,0000.0,0002.25,0010.16,0001.49
2023-11-05 01:55:00,SystemResetWarning,0832.1,5.00,000.00,028.2,027.2,000.0,036.5,029.7,13.2,0000.0,0002.27,0010.34,0001.51
2023-11-05 01:56:00,SystemResetWarning,0832.1,4.99,000.00,028.2,025.8,000.0,036.5,029.6,13.2,0000.0,0002.29,0010.63,0001.52
2023-11-05 01:57:00,SystemResetWarning,0832.1,5.01,000.00,028.1,023.9,000.0,036.4,029.3,13.3,0000.0,0002.31,0010.65,0001.52
2023-11-05 01:58:00,SystemResetWarning,0832.1,5.01,000.00,028.0,023.7,000.0,036.4,028.9,13.3,0000.0,0002.37,0010.92,0001.54
2023-11-05 01:59:00,SystemResetWarning,0832.1,5.00,000.00,027.8,024.0,000.0,036.3,028.7,13.5,0000.0,0002.45,0010.73,0001.55
